Wind_Speed
55 55 55 55 56 55 54 54 55 54 53 51 51 51 51 52 52 51 50 50 50 50 50 50 50 50 49 49 49 49 49 48 47 48 47 48 48 48
55 55 56 56 56 56 55 54 55 55 54 53 53 52 52 52 53 53 52 52 52 51 51 51 51 50 50 49 49 49 49 49 48 48 49 49 50 50
56 55 55 56 56 56 56 56 55 55 54 53 53 54 54 53 54 54 54 53 53 52 52 52 52 51 51 51 50 50 50 51 50 50 50 51 51 51
56 55 55 55 56 56 56 56 57 56 56 55 54 54 55 55 55 55 55 55 55 54 54 53 53 53 52 52 52 52 52 52 52 52 52 52 52 52
56 56 56 56 57 57 58 58 58 58 58 57 56 56 56 56 56 56 56 56 56 55 55 55 54 53 53 53 53 53 53 53 53 53 53 52 51 51
56 56 56 57 57 58 59 59 59 60 59 58 58 57 57 57 57 57 57 56 56 56 55 54 55 54 53 53 53 54 54 53 53 53 53 52 52 51
55 56 57 57 58 58 59 59 59 60 59 59 58 58 58 58 57 56 56 55 56 56 54 54 54 53 53 53 53 54 54 54 54 54 53 52 53 53
55 56 57 58 58 58 59 59 58 59 59 58 58 58 57 58 58 57 56 56 55 55 55 54 54 53 54 54 54 54 54 54 54 54 53 53 53 53
55 55 56 57 58 59 59 58 57 57 57 57 57 57 56 57 57 57 56 56 55 54 55 54 54 54 55 55 55 55 55 55 54 54 54 54 54 54
55 55 55 55 55 56 56 56 56 57 57 56 56 55 56 56 57 57 56 56 55 55 56 55 55 55 55 55 55 55 55 55 55 55 55 55 55 55
51 51 51 51 51 51 52 52 53 53 55 56 54 54 55 55 56 56 56 55 55 55 56 55 55 55 55 54 54 54 54 55 55 55 56 56 56 56
48 48 48 48 48 49 50 50 51 52 53 53 53 53 54 54 54 55 56 56 56 55 55 56 55 55 54 53 54 54 54 54 55 56 56 57 57 57
47 47 47 47 48 48 49 49 49 50 51 51 51 51 52 52 53 54 55 55 55 55 55 55 55 55 54 52 52 54 54 54 55 56 57 57 57 57
45 46 46 47 47 47 48 49 49 50 51 51 51 51 51 51 51 52 53 54 54 53 53 53 53 53 52 52 52 53 54 55 56 56 56 56 55 55
45 45 46 46 46 46 46 47 48 49 49 49 49 49 49 50 50 51 52 52 52 52 52 52 52 52 52 52 52 52 53 54 55 55 55 55 55 54
44 44 45 45 46 46 46 47 47 48 47 47 46 47 48 48 49 50 50 50 51 51 51 51 52 52 51 51 51 51 52 53 53 53 53 54 54 54
42 43 44 44 45 46 46 46 46 45 45 46 46 46 46 46 47 48 49 49 48 49 49 50 51 52 52 52 52 52 52 52 51 51 51 51 52 53
42 42 43 44 44 44 44 44 44 44 44 44 45 44 44 44 45 45 46 47 47 48 49 49 50 50 51 51 52 52 51 51 50 50 50 50 50 51
40 40 41 42 42 42 43 43 43 43 43 43 44 44 44 43 43 44 45 45 46 47 47 48 48 49 49 49 49 50 50 49 49 48 49 49 49 49
38 38 39 40 41 41 41 42 42 43 43 43 43 43 43 43 43 44 44 45 46 46 46 46 46 47 47 48 47 48 49 48 47 47 48 48 48 48
36 37 38 39 39 39 39 40 40 41 41 41 41 42 42 43 43 43 44 44 44 45 44 44 44 45 46 46 46 45 46 47 47 47 46 46 46 45
35 35 36 36 37 37 37 37 37 38 39 39 39 40 40 41 41 41 42 42 43 43 42 42 42 43 44 44 44 44 43 44 44 44 44 44 43 43
32 33 33 34 34 34 35 35 36 36 37 37 37 37 38 38 38 39 40 40 40 40 40 40 40 41 41 42 42 42 42 42 42 42 41 41 41 41
Wind_Direction
257 258 258 259 259 261 261 262 262 262 262 262 262 262 263 263 264 265 265 264 264 265 264 266 267 268 268 267 268 269 270 270 270 271 272 272 272 272
257 258 258 258 259 260 260 261 261 262 262 262 261 261 261 263 264 264 264 264 265 265 265 265 266 266 267 267 268 269 270 271 271 271 271 271 272 273
259 259 258 258 259 260 260 260 260 261 261 262 262 261 261 262 263 263 264 264 264 265 265 265 265 265 266 266 267 268 269 270 271 271 271 271 272 273
260 260 259 259 259 260 260 260 260 261 261 262 262 263 262 263 263 263 263 263 263 264 265 265 265 266 265 265 266 267 268 269 270 270 271 271 271 272
259 260 260 260 260 260 260 260 260 261 262 262 262 263 263 262 263 263 263 262 263 264 264 265 265 265 265 266 267 268 268 269 269 270 270 271 271 271
259 259 260 260 261 261 260 261 261 261 262 263 263 263 263 262 263 264 263 262 263 263 263 264 265 265 266 266 266 268 268 269 270 270 270 270 270 271
259 259 260 260 261 261 262 261 261 261 261 263 263 263 263 263 263 263 263 263 263 263 263 263 264 264 265 266 266 268 268 269 270 269 270 270 270 271
259 260 261 261 262 262 262 262 261 260 261 262 263 263 263 263 263 263 263 263 263 263 263 263 263 263 264 265 267 268 269 270 269 269 269 270 271 272
260 261 262 263 262 262 261 261 261 261 261 262 263 263 263 263 263 263 263 264 263 263 264 264 264 265 266 266 267 268 269 269 269 269 270 271 272 273
260 261 261 261 261 261 260 260 260 261 261 261 262 263 263 263 262 262 263 264 263 264 264 264 265 265 266 267 268 268 269 269 270 270 270 271 272 272
260 260 261 261 260 259 260 260 259 260 260 260 261 262 263 263 263 262 262 263 263 263 264 265 265 265 266 266 267 268 269 269 270 270 270 271 272 272
260 260 261 260 259 260 260 260 260 260 260 260 261 262 263 263 262 262 262 263 263 262 262 264 265 265 265 265 267 268 269 269 269 270 271 271 271 272
261 261 261 261 260 261 261 261 261 260 260 260 261 262 262 262 262 263 262 263 263 263 263 264 265 265 266 265 265 266 267 268 268 270 270 271 271 271
261 261 261 261 261 261 262 261 261 262 262 262 263 262 262 262 263 263 263 264 264 264 264 265 265 265 266 266 266 266 266 267 268 269 270 271 271 271
262 262 261 261 261 261 261 261 262 263 264 264 264 263 263 263 263 263 263 263 263 264 264 265 266 266 266 266 266 267 267 268 269 269 270 270 271 271
263 261 261 260 261 261 261 262 262 262 263 264 264 264 264 263 263 263 262 262 262 263 264 265 265 266 266 267 268 268 269 269 269 269 270 270 271 271
262 261 261 261 261 262 262 263 263 262 262 262 263 264 264 263 262 262 262 262 263 263 264 265 265 266 267 268 269 269 270 270 269 270 269 269 270 272
262 261 260 260 261 261 262 262 262 262 263 262 262 262 263 262 261 262 263 263 264 265 265 266 266 267 268 268 268 269 270 270 270 270 270 270 271 272
263 263 261 261 261 262 262 261 261 262 262 262 262 262 262 262 262 263 264 265 265 266 266 267 268 268 268 268 268 269 270 270 270 271 271 271 272 273
265 265 264 264 264 264 264 263 262 261 262 262 263 262 262 262 263 264 265 265 266 266 267 268 269 270 269 269 268 269 270 270 271 271 271 272 273 274
265 266 266 265 265 265 265 264 263 263 263 263 264 264 264 264 265 266 267 268 268 269 269 270 271 272 271 270 269 269 269 271 272 272 273 273 274 274
266 267 268 267 265 265 265 264 264 263 263 264 264 265 265 266 267 268 269 269 270 270 270 271 271 271 271 271 270 269 268 269 271 272 273 274 275 274
267 269 269 269 267 265 265 264 264 264 263 264 264 266 266 267 268 269 270 270 270 269 269 270 271 271 271 270 270 269 268 268 270 271 272 274 275 274
Height
5649 5651 5654 5656 5658 5661 5663 5665 5667 5670 5673 5674 5675 5676 5677 5678 5679 5680 5682 5682 5684 5685 5686 5687 5688 5689 5690 5691 5692 5692 5693 5693 5694 5694 5694 5694 5694 5694
5634 5636 5639 5641 5643 5646 5648 5650 5652 5654 5657 5661 5661 5663 5663 5664 5665 5666 5668 5669 5670 5671 5672 5673 5674 5675 5676 5677 5678 5679 5680 5680 5680 5681 5681 5681 5680 5680
5619 5621 5624 5626 5628 5630 5632 5634 5636 5638 5641 5645 5646 5647 5648 5650 5651 5652 5653 5654 5656 5657 5658 5659 5660 5661 5662 5663 5664 5665 5666 5666 5666 5667 5667 5667 5666 5666
5604 5606 5608 5610 5613 5615 5617 5619 5621 5623 5625 5628 5631 5632 5633 5634 5635 5637 5638 5639 5641 5642 5643 5644 5645 5646 5648 5649 5649 5650 5651 5651 5652 5652 5652 5653 5652 5651
5588 5590 5593 5595 5597 5599 5601 5603 5605 5607 5608 5611 5615 5617 5618 5618 5619 5622 5623 5624 5625 5626 5627 5629 5630 5631 5632 5633 5634 5635 5636 5637 5637 5637 5637 5637 5637 5637
5572 5574 5576 5579 5581 5583 5585 5587 5589 5591 5592 5595 5598 5600 5601 5602 5603 5605 5607 5608 5610 5611 5612 5613 5615 5616 5617 5618 5619 5619 5620 5621 5621 5621 5622 5622 5622 5622
5556 5558 5560 5562 5564 5566 5568 5570 5572 5574 5576 5578 5581 5583 5585 5586 5588 5589 5590 5592 5594 5595 5596 5598 5600 5601 5601 5602 5603 5603 5604 5605 5605 5606 5606 5606 5606 5606
5540 5542 5544 5546 5547 5549 5551 5553 5555 5558 5560 5562 5564 5567 5569 5570 5571 5573 5574 5577 5580 5582 5581 5583 5583 5585 5586 5587 5588 5588 5588 5589 5589 5590 5590 5590 5591 5591
5524 5526 5527 5529 5530 5532 5534 5536 5538 5540 5543 5546 5548 5550 5552 5554 5555 5557 5558 5560 5563 5564 5565 5567 5568 5569 5570 5571 5571 5572 5573 5573 5573 5574 5574 5575 5575 5575
5508 5509 5511 5513 5514 5515 5518 5520 5522 5525 5527 5530 5533 5535 5535 5536 5538 5540 5542 5544 5546 5547 5548 5551 5553 5554 5555 5555 5556 5556 5556 5557 5557 5557 5558 5558 5559 5559
5492 5493 5495 5497 5498 5500 5502 5505 5507 5509 5510 5513 5516 5517 5519 5520 5521 5522 5525 5527 5529 5531 5532 5534 5537 5538 5539 5540 5540 5540 5540 5540 5541 5541 5541 5542 5542 5542
5477 5479 5480 5482 5483 5484 5487 5489 5492 5494 5496 5498 5499 5501 5502 5503 5504 5506 5508 5510 5512 5515 5516 5518 5519 5520 5523 5525 5524 5524 5524 5524 5524 5524 5525 5525 5524 5524
5463 5465 5467 5468 5469 5470 5472 5474 5476 5478 5480 5481 5483 5485 5486 5487 5489 5490 5491 5493 5496 5498 5500 5501 5503 5503 5505 5509 5510 5509 5508 5508 5508 5508 5508 5508 5508 5507
5450 5451 5453 5454 5455 5456 5458 5459 5461 5462 5464 5465 5467 5469 5470 5472 5473 5475 5476 5477 5479 5482 5483 5484 5486 5487 5488 5490 5493 5493 5493 5492 5492 5492 5492 5491 5491 5490
5436 5437 5439 5440 5441 5442 5444 5445 5446 5447 5449 5450 5452 5454 5456 5457 5458 5459 5461 5462 5464 5465 5467 5468 5469 5471 5472 5474 5476 5476 5476 5477 5476 5476 5475 5475 5475 5474
5422 5423 5425 5426 5427 5428 5429 5430 5432 5433 5434 5436 5437 5439 5440 5441 5443 5444 5446 5447 5449 5451 5451 5452 5453 5455 5456 5457 5458 5459 5459 5460 5460 5459 5459 5459 5458 5457
5409 5410 5411 5412 5414 5415 5416 5417 5418 5419 5420 5422 5423 5424 5426 5427 5428 5430 5431 5433 5434 5436 5437 5437 5438 5439 5440 5441 5442 5442 5442 5443 5443 5442 5442 5442 5442 5441
5395 5397 5398 5399 5401 5402 5403 5404 5405 5406 5407 5408 5409 5411 5412 5413 5415 5416 5417 5418 5420 5421 5422 5422 5423 5424 5425 5426 5426 5426 5426 5427 5427 5426 5426 5426 5426 5425
5383 5384 5385 5386 5387 5388 5390 5391 5392 5393 5394 5395 5396 5397 5399 5400 5401 5402 5403 5405 5406 5407 5407 5407 5408 5408 5410 5411 5412 5410 5410 5411 5411 5411 5411 5410 5410 5410
5371 5372 5373 5373 5374 5375 5377 5378 5379 5380 5381 5382 5383 5385 5386 5387 5388 5389 5390 5391 5392 5393 5393 5393 5393 5393 5394 5395 5396 5396 5394 5394 5395 5395 5396 5395 5395 5394
5359 5359 5360 5361 5362 5363 5364 5365 5366 5367 5369 5370 5371 5372 5373 5374 5375 5376 5377 5377 5378 5378 5379 5379 5379 5379 5379 5380 5381 5382 5381 5379 5379 5380 5380 5380 5380 5379
5347 5348 5348 5349 5350 5351 5351 5353 5354 5355 5356 5357 5359 5360 5361 5362 5363 5363 5364 5364 5364 5365 5365 5365 5365 5365 5365 5366 5366 5367 5367 5367 5366 5365 5365 5365 5364 5364
5336 5337 5337 5338 5338 5339 5340 5341 5342 5343 5345 5346 5347 5348 5349 5349 5350 5350 5351 5351 5351 5352 5352 5352 5352 5352 5352 5352 5352 5353 5353 5353 5353 5353 5353 5352 5351 5351